Theta_e
341 340 340 342 345 347 349 349 349 350 351 352 351 350 350 349 348 347 348 349 350 350 350 351 351 350 349 348 348 349 349 349 349 350 352 351 348 348 348 349 350 352 351 350 349 348 348 350 351 351 351 350 351 351 350 353 353 352 353 351 349 349 349 346 344 343 342 342 342 340 341 342 342 342 343 342 341 342 342 341 341 342 343 343 343
341 340 340 343 346 346 348 349 349 350 351 352 352 350 350 350 349 348 349 350 350 351 352 352 352 351 351 350 348 349 350 349 348 349 350 350 349 348 348 348 349 351 351 350 349 348 349 350 350 350 350 350 351 351 351 354 354 353 353 351 350 351 351 348 345 344 343 342 341 340 342 343 342 342 342 343 342 342 343 342 342 342 342 342 342
342 339 341 344 346 346 347 348 348 349 350 350 351 350 350 350 349 348 349 351 351 351 351 352 352 351 352 351 349 349 350 349 347 347 347 348 349 348 347 347 349 352 352 351 351 350 350 350 350 350 350 351 352 352 353 355 354 353 352 351 350 351 352 350 348 347 347 344 342 344 346 346 348 345 340 341 341 341 341 342 342 342 342 342 341
342 339 342 345 345 346 346 347 348 348 348 349 349 350 350 349 349 349 350 350 351 351 351 351 351 351 351 350 350 349 349 349 348 347 348 348 348 348 347 346 349 352 352 352 353 352 352 351 350 350 349 351 353 352 353 354 353 353 353 352 351 351 352 351 350 349 348 346 345 347 346 348 356 352 342 341 341 341 341 341 342 341 340 341 342
342 339 342 345 345 346 346 346 348 347 348 348 349 350 350 349 350 350 350 351 351 352 352 352 351 351 351 350 349 349 348 349 349 350 351 350 348 345 346 346 348 352 352 352 353 352 353 353 351 350 351 351 351 351 353 354 353 353 353 354 352 351 352 351 351 350 349 349 347 348 346 349 358 352 345 345 342 341 343 341 342 341 340 340 341
341 339 341 345 345 345 346 347 347 347 347 348 348 349 349 349 350 350 351 351 351 352 352 352 351 352 351 349 348 347 347 348 349 350 350 350 346 342 343 347 347 351 353 352 353 353 353 353 351 351 351 350 349 352 353 353 353 353 353 354 352 353 353 352 352 351 350 350 349 349 348 350 354 350 348 350 345 342 341 339 340 341 341 342 341
340 338 341 344 344 345 346 347 348 347 347 347 347 349 349 349 349 350 350 350 351 352 352 351 351 351 352 350 348 347 346 347 348 348 347 348 345 341 341 345 347 350 353 352 352 352 353 353 352 351 351 350 351 353 353 353 353 353 353 353 352 353 354 352 353 352 350 350 350 349 348 348 349 348 351 351 350 350 343 337 338 339 340 341 341
340 338 342 344 344 345 346 347 348 348 348 348 348 349 349 349 349 349 350 350 351 353 352 351 351 352 352 350 348 346 346 346 346 346 346 346 347 343 340 342 345 348 351 353 353 353 354 354 352 352 352 351 352 354 353 353 353 353 354 354 353 354 354 353 354 354 353 351 350 348 347 347 346 347 348 347 352 359 353 344 341 338 339 340 339
340 339 342 344 344 345 346 347 348 348 348 348 348 349 349 349 349 349 350 350 352 353 352 351 350 351 352 350 347 346 345 344 344 346 346 347 348 344 341 343 345 346 348 351 352 353 353 354 353 353 353 351 352 354 353 353 353 353 354 352 353 355 355 353 353 354 354 352 352 350 348 347 346 346 347 345 351 358 358 355 348 341 342 342 340
341 338 340 343 344 346 346 348 348 349 349 348 349 349 349 350 350 350 350 350 351 352 352 351 351 351 352 352 350 348 347 345 345 345 346 348 347 345 345 347 348 347 346 348 351 353 353 354 353 352 353 352 351 353 353 353 353 353 352 352 354 356 355 354 354 354 354 353 353 352 350 348 347 346 346 346 347 349 353 354 350 346 346 347 344
340 339 340 342 344 346 346 348 349 349 349 349 349 350 350 350 350 351 350 350 351 351 351 351 351 352 352 352 351 350 350 349 348 347 348 348 348 347 347 349 351 350 348 348 351 353 353 354 353 351 352 353 352 352 353 353 353 354 353 353 355 355 354 354 354 353 354 354 353 353 352 349 347 347 347 347 346 346 350 350 350 350 348 349 349
340 341 341 342 344 346 347 348 349 350 350 350 350 350 351 350 350 351 350 350 350 349 351 352 352 353 352 352 351 351 350 350 350 349 349 349 348 349 348 349 352 352 350 350 351 352 353 354 353 351 352 355 355 353 353 353 353 354 354 353 354 355 354 354 354 353 353 354 353 353 352 350 349 348 348 349 348 346 348 348 350 353 350 350 351
341 342 341 342 344 345 347 349 349 350 351 351 351 351 351 351 351 350 350 350 348 347 350 352 352 353 353 352 351 351 351 350 351 350 349 349 350 350 349 350 353 351 350 352 351 350 352 354 353 351 351 353 355 354 353 354 354 354 354 352 353 354 354 354 354 354 354 355 354 353 352 351 350 350 349 350 350 348 348 349 352 353 351 351 351
343 342 341 341 344 345 346 348 349 351 351 351 352 352 352 351 351 351 351 350 348 348 350 351 352 353 352 352 351 351 351 351 351 351 350 350 350 350 350 351 352 349 350 353 352 351 352 354 353 352 351 352 354 355 354 354 354 354 353 352 353 355 354 355 355 354 353 354 356 354 353 352 351 351 350 351 351 349 350 352 352 353 351 350 350
347 343 341 340 342 344 347 348 349 351 351 352 353 353 353 352 352 352 351 351 349 349 351 352 353 353 353 352 352 351 351 351 351 351 351 351 351 351 351 352 350 348 351 354 354 353 353 354 353 352 352 352 354 355 355 355 354 354 354 352 353 355 355 356 355 354 353 352 355 355 354 354 353 353 351 351 352 351 351 352 352 355 356 354 352
353 346 343 341 340 344 346 347 349 350 351 352 353 353 354 353 352 352 352 352 350 349 351 352 353 354 353 353 353 352 352 352 352 352 352 352 352 352 352 353 350 349 353 354 354 354 352 353 354 353 353 353 354 355 355 355 354 354 355 353 354 355 355 355 354 353 352 351 353 354 355 355 354 354 353 353 353 352 353 353 353 354 357 358 361
358 352 346 342 340 342 345 347 348 349 350 352 353 353 354 354 354 353 353 353 352 351 352 353 354 354 353 353 354 355 354 354 353 353 353 352 352 352 352 353 351 351 353 353 353 354 353 353 354 353 355 355 355 355 355 355 355 355 355 354 354 355 355 353 352 352 353 352 352 352 354 355 356 356 355 353 352 352 353 353 353 353 354 357 364
360 357 351 344 341 341 343 346 347 348 350 352 353 354 354 354 354 354 354 354 353 353 353 353 354 354 354 354 354 356 356 355 355 354 353 353 352 352 353 353 352 352 352 351 352 354 354 354 354 354 355 356 356 356 356 356 356 356 355 354 354 355 354 353 352 353 353 353 352 351 352 355 356 356 356 355 353 353 354 353 353 354 354 354 355
360 361 358 350 342 342 343 344 346 347 349 351 353 354 354 354 355 354 354 355 354 354 354 353 353 353 354 354 354 355 356 355 355 354 352 353 352 352 352 352 353 352 353 352 353 354 356 355 355 354 355 356 356 356 356 357 357 356 355 355 356 356 355 353 353 353 353 352 351 349 351 354 356 355 355 356 355 355 356 355 355 354 354 355 353
358 360 362 356 345 342 343 344 345 347 348 351 353 354 355 355 355 355 355 355 355 355 354 354 354 354 354 354 354 355 355 354 353 352 351 353 353 352 351 352 353 353 353 353 354 355 355 355 355 355 355 356 356 357 357 357 357 357 356 356 357 357 356 355 354 354 353 354 352 349 351 355 356 357 356 356 356 355 355 355 355 354 353 355 354
354 356 362 360 349 344 344 344 345 346 348 351 353 354 355 356 356 356 355 356 356 355 355 355 355 355 355 355 355 355 355 354 353 351 351 352 352 351 351 351 352 353 354 355 355 355 354 354 354 355 355 355 355 356 357 357 358 358 357 356 356 356 356 355 355 355 355 355 354 353 354 356 356 357 357 357 356 355 355 354 354 354 353 354 355
352 354 359 360 353 348 345 345 345 346 348 351 353 354 355 356 357 356 356 357 356 356 356 356 356 356 356 355 355 355 354 354 353 352 352 353 352 352 353 353 353 354 355 356 356 355 354 354 354 355 355 355 354 355 356 356 357 358 358 358 357 357 356 355 355 356 356 356 356 355 355 356 356 357 357 356 356 355 355 355 354 354 354 353 354
354 355 358 357 353 349 348 347 347 347 349 351 353 354 356 356 356 357 357 357 357 357 356 357 357 356 356 356 355 355 354 354 353 353 353 353 352 353 354 355 355 355 356 356 356 355 355 355 355 355 355 355 355 356 356 357 357 358 358 358 358 357 356 355 354 355 355 355 356 356 355 354 355 356 356 355 355 355 355 356 356 355 355 354 353
359 357 355 352 349 348 348 348 348 348 350 352 353 354 355 356 357 357 357 357 358 358 357 357 357 357 357 356 355 355 354 354 354 353 354 353 353 353 354 355 355 355 355 356 356 356 356 355 355 355 355 356 357 357 357 357 358 358 358 358 358 357 357 357 356 355 355 356 357 356 355 354 355 356 356 355 355 356 355 356 357 355 354 354 353
355 354 355 354 352 348 346 347 348 348 349 351 352 354 355 355 357 357 358 358 358 358 358 358 357 357 357 356 356 355 355 354 354 353 354 354 353 353 354 355 355 355 355 356 355 355 355 354 354 354 355 356 357 357 357 357 358 357 357 357 357 357 356 357 357 356 356 356 357 356 355 356 357 357 357 357 357 357 356 356 356 355 355 354 354
350 350 352 352 352 349 347 348 348 348 348 349 350 353 354 353 354 354 355 356 358 358 358 358 358 357 357 356 356 355 355 354 354 354 354 354 354 354 354 355 355 355 356 356 355 355 355 354 353 353 354 355 355 356 356 357 357 357 357 357 357 357 356 356 356 356 356 356 356 357 356 356 356 357 357 358 357 357 357 356 355 355 355 354 354
348 350 351 350 350 349 348 349 348 348 349 349 349 352 353 352 352 351 352 352 355 357 358 357 357 357 356 356 356 355 355 355 354 354 354 354 353 354 355 355 355 355 355 355 355 356 355 354 353 353 354 354 354 355 355 356 357 356 356 356 357 357 355 355 356 357 356 357 357 358 357 356 357 357 357 357 357 356 356 355 354 354 354 354 354
346 348 350 350 350 350 349 349 349 350 350 350 350 351 352 352 352 352 353 353 354 356 357 356 356 357 356 356 356 355 355 354 354 354 354 354 354 354 355 355 355 355 355 355 356 356 355 354 354 354 353 354 354 354 355 355 356 356 356 356 356 356 355 356 357 357 356 357 358 358 358 357 357 357 357 357 357 356 356 355 355 354 354 354 353
347 347 347 347 348 349 348 348 350 351 350 351 351 350 351 351 351 351 352 353 355 356 356 355 356 357 357 356 356 356 356 355 355 355 355 355 354 355 355 355 356 356 355 356 355 356 356 355 355 355 354 354 355 355 356 356 356 356 356 356 355 355 355 356 357 357 357 357 357 358 357 357 357 357 357 357 356 356 356 355 355 354 354 354 353
348 347 347 346 347 347 347 348 350 350 350 351 350 351 351 351 351 351 351 352 355 356 355 354 355 356 357 356 356 356 356 356 356 355 355 355 354 354 355 354 355 355 355 354 354 355 356 355 355 355 354 354 355 356 356 356 356 356 356 356 355 354 355 356 357 357 357 357 356 356 357 357 357 356 355 356 357 357 356 356 355 355 355 354 352
347 347 346 346 346 346 345 347 348 349 350 350 349 350 350 350 351 351 350 351 354 355 354 353 355 356 356 356 355 355 355 355 356 356 355 355 354 354 354 354 354 354 354 353 353 354 354 354 355 355 354 355 354 354 356 356 356 356 356 356 356 355 355 356 357 358 358 358 357 356 356 356 356 355 354 355 356 356 354 354 354 354 353 351 350
346 346 346 346 345 345 345 345 346 348 349 349 348 349 349 350 350 350 350 350 351 353 354 353 354 355 355 354 353 353 353 352 353 354 355 355 354 353 353 353 352 352 352 352 352 353 353 353 354 354 354 354 354 354 355 355 355 355 355 356 356 356 356 356 357 358 358 357 357 356 356 355 355 354 354 353 353 351 350 350 350 350 349 349 349
345 345 345 345 344 344 344 344 344 346 347 348 348 348 348 348 349 349 350 350 350 350 350 351 351 351 351 351 351 351 352 352 351 350 351 354 355 353 351 350 350 351 351 352 351 353 353 353 354 354 354 354 355 355 354 354 354 354 354 355 356 356 356 356 357 357 357 357 356 355 355 354 353 353 353 352 352 351 350 350 350 350 350 351 352
341 342 343 344 344 343 343 343 343 343 344 345 346 347 347 347 348 348 349 350 349 349 348 349 349 349 348 348 349 350 351 352 351 350 348 350 353 353 352 351 351 351 352 353 353 353 354 354 354 354 355 355 355 354 354 354 354 353 354 355 356 356 355 355 356 357 357 357 356 355 355 354 353 351 351 352 352 351 351 351 351 352 352 353 353
336 338 339 340 342 342 341 341 341 341 342 343 344 345 346 345 345 346 347 347 347 347 347 347 347 347 347 348 349 350 350 351 351 351 349 348 349 351 352 353 353 352 352 353 352 353 353 353 353 354 354 354 355 354 354 354 353 354 355 356 356 355 354 354 355 355 356 357 356 355 355 354 352 348 349 350 351 351 351 351 351 351 351 351 353
333 334 334 336 337 338 338 338 337 338 339 340 342 344 345 345 345 345 345 345 345 346 346 345 345 346 347 347 348 348 349 350 350 351 350 348 348 349 352 353 352 350 351 353 352 352 352 351 352 352 352 352 353 353 353 354 354 355 356 356 356 355 354 353 353 353 353 354 354 355 354 353 350 347 347 348 349 349 349 349 349 348 349 352 355
331 331 332 333 334 335 335 335 335 336 336 337 339 341 343 344 344 344 344 344 345 345 345 346 346 346 346 346 347 348 349 350 351 351 350 350 350 350 352 352 350 348 351 352 352 352 351 351 351 351 351 351 351 351 351 352 352 353 353 353 353 353 353 352 351 351 350 349 352 353 352 350 348 347 347 347 347 348 347 347 347 347 350 354 355
329 330 330 331 332 332 333 333 334 334 334 335 336 337 338 338 339 341 342 342 343 343 344 344 345 345 345 346 346 348 348 349 350 350 348 349 350 350 351 351 350 349 350 351 352 352 351 350 351 351 350 350 350 351 351 350 350 350 350 350 350 350 350 350 351 350 349 349 350 351 350 348 348 347 347 347 348 348 348 348 348 348 351 354 356
327 328 329 329 330 331 331 331 331 331 332 333 334 334 333 332 333 336 337 338 339 340 342 343 343 343 344 344 344 345 346 346 346 346 346 347 348 348 349 349 349 349 350 350 350 351 350 350 350 350 350 350 351 352 352 351 350 349 349 348 348 348 348 348 349 348 348 349 350 349 349 349 348 348 349 349 349 349 349 350 349 350 351 353 353
325 327 327 328 329 329 329 329 329 329 330 331 331 331 330 329 330 332 333 334 335 337 339 341 342 342 342 342 342 343 344 344 345 345 345 346 346 347 346 347 347 347 348 348 349 349 349 349 349 349 348 349 349 350 350 351 351 350 349 349 348 347 347 347 348 347 347 350 351 351 351 351 350 350 351 350 350 350 349 350 350 351 351 351 352
324 325 326 327 327 327 327 327 328 328 328 328 328 328 327 327 328 329 329 330 332 334 336 338 339 340 340 340 341 342 342 343 343 343 343 344 345 345 345 346 346 346 346 347 347 348 349 349 349 348 348 348 348 348 349 350 350 349 349 348 348 348 347 349 350 348 346 349 352 353 352 352 351 351 351 351 351 350 350 351 352 351 351 351 350
324 324 325 326 326 326 327 326 327 327 327 327 327 327 327 327 327 327 327 327 328 330 333 335 337 337 337 337 338 339 340 339 339 340 341 342 342 344 346 346 346 346 346 345 345 346 347 347 347 346 346 345 345 345 346 347 347 347 347 347 347 347 347 348 350 350 348 349 352 354 353 352 352 351 351 351 350 350 350 350 350 350 350 348 344
324 323 324 325 325 325 325 324 325 326 326 326 326 326 326 326 326 327 327 326 326 327 328 331 333 334 334 334 335 335 335 334 335 336 338 339 340 342 344 345 346 345 345 344 344 344 344 343 342 341 340 339 340 342 343 343 343 344 345 345 346 347 347 346 348 350 349 348 351 352 351 351 351 350 350 350 350 350 350 350 349 349 345 340 339
324 324 324 324 324 323 323 323 323 324 324 325 325 325 324 324 325 326 326 325 325 325 325 327 329 330 331 331 332 332 331 330 331 332 333 335 336 338 340 342 343 343 343 342 341 341 340 338 336 336 336 336 337 338 338 339 339 339 340 341 342 344 345 345 347 349 349 347 349 348 347 347 348 346 345 345 344 343 343 344 344 343 339 338 342
323 324 324 323 323 323 322 322 322 322 322 323 324 323 323 323 324 325 325 324 325 325 325 325 326 326 327 327 327 327 326 325 325 327 329 331 333 335 337 338 339 340 340 339 337 337 337 335 333 332 332 333 334 335 335 336 336 336 337 338 338 338 339 340 342 345 345 345 344 341 339 338 337 334 332 332 332 332 333 336 337 336 337 341 342
323 324 324 323 323 322 322 321 320 320 320 321 322 323 321 321 323 325 324 323 324 326 326 326 325 324 323 323 323 323 323 322 321 321 323 326 329 332 334 335 337 338 337 336 335 335 334 332 329 327 327 328 329 330 330 331 331 331 332 332 332 332 334 334 335 337 340 341 338 334 330 327 325 326 329 332 333 335 336 337 338 338 339 339 337
320 321 323 324 323 323 322 322 321 320 319 317 318 319 320 320 322 323 324 324 323 325 326 326 325 324 323 322 321 320 320 319 318 317 318 321 323 327 331 334 335 335 335 334 334 334 331 327 325 324 324 324 324 324 324 324 324 323 323 323 323 324 326 327 327 329 331 331 328 326 323 321 323 329 335 337 338 339 340 340 340 339 337 334 332
319 319 320 321 323 323 323 321 320 318 317 315 313 313 316 317 318 319 322 323 323 323 325 325 325 324 323 320 319 318 318 317 316 315 315 316 318 321 327 331 333 333 333 333 332 329 326 324 323 323 323 324 325 324 324 323 322 321 320 319 320 320 321 323 324 325 326 327 327 326 325 325 329 335 338 338 338 339 339 338 336 333 330 329 329
322 322 320 318 319 320 320 319 318 317 316 315 313 312 313 315 315 315 318 321 322 323 324 324 324 323 321 320 320 320 319 317 317 316 314 315 317 320 323 326 330 332 332 332 331 328 325 325 325 323 322 323 323 323 323 321 320 320 319 318 319 320 319 323 326 327 327 329 331 332 332 333 336 338 337 336 336 335 333 331 329 327 327 327 327
323 324 323 320 319 317 314 315 316 316 316 317 316 314 313 315 316 316 317 319 322 322 323 324 324 323 323 323 322 321 320 319 318 317 316 316 318 321 322 322 324 325 326 326 326 325 324 324 324 323 320 319 317 317 318 317 317 318 319 319 319 320 319 321 327 328 327 328 330 332 334 336 338 337 334 331 331 330 328 326 326 325 325 325 325
323 324 323 322 321 319 316 314 312 312 313 314 315 315 315 315 317 319 320 321 321 320 321 323 323 323 324 325 324 323 322 320 319 318 317 317 317 319 321 320 318 317 317 317 317 318 317 317 317 317 317 316 313 313 314 315 314 315 317 318 319 319 318 321 325 328 327 327 329 331 334 336 335 332 329 328 328 327 326 324 324 323 323 324 323
Wind_Speed
13 19 24 26 27 27 26 26 26 25 26 27 28 28 27 26 26 26 26 25 24 24 23 22 21 21 20 20 21 20 19 17 16 16 15 13 13 13 12 12 11 9 8 9 9 9 10 12 10 8 7 6 5 4 4 3 2 2 2 4 5 7 8 7 5 2 4 6 4 5 6 6 6 7 9 10 9 10 11 13 13 13 12 11 9
11 14 20 25 25 26 26 25 26 26 26 27 28 29 28 27 27 28 28 27 25 25 24 23 22 23 22 22 22 21 20 19 19 19 17 16 15 15 14 14 13 9 8 9 10 11 12 12 10 8 7 6 5 4 4 3 1 1 2 2 5 8 8 7 7 4 1 2 2 2 5 6 7 7 9 10 10 11 12 13 14 15 16 15 13
9 10 16 23 25 26 26 25 27 28 28 29 28 29 30 29 28 28 29 28 27 25 24 23 22 23 22 21 22 21 20 20 19 19 18 17 18 18 17 17 14 10 9 9 10 12 12 10 9 7 7 7 5 5 5 3 1 2 3 3 4 7 8 7 7 5 2 1 1 1 2 3 5 7 8 11 13 14 15 15 16 16 16 16 16
11 9 13 20 24 25 25 25 27 27 27 28 28 29 30 31 30 29 30 29 27 25 24 23 22 21 20 20 21 21 20 20 19 18 18 17 18 19 19 19 16 12 10 10 10 11 10 9 8 8 8 7 5 5 5 3 1 1 3 4 4 7 7 7 7 7 4 1 1 0 0 2 2 4 6 9 10 13 16 16 16 16 16 15 15
13 10 11 16 21 24 26 26 27 27 27 29 30 30 30 32 32 30 31 29 27 25 23 22 21 20 19 19 21 21 19 20 21 20 19 18 17 19 21 21 18 14 12 11 10 10 9 8 8 8 9 8 6 5 5 3 2 2 3 4 4 6 7 7 7 9 8 4 2 0 1 1 2 3 5 5 4 5 10 14 16 17 16 15 15
13 12 12 16 20 23 25 26 27 27 29 31 32 32 31 32 32 31 31 30 28 25 23 24 23 21 20 22 23 22 20 21 23 22 21 19 17 19 21 21 20 16 14 12 11 10 9 9 9 8 8 8 7 6 5 3 3 2 2 3 3 4 6 7 7 8 10 8 4 2 1 1 3 2 2 3 4 5 7 7 12 16 17 17 17
11 12 13 16 20 22 23 26 28 28 30 31 31 31 31 32 32 31 31 30 29 26 25 26 24 21 20 22 25 24 23 23 24 23 21 19 17 18 20 21 20 18 16 14 13 11 10 10 10 9 7 8 8 7 5 4 3 2 1 2 2 3 4 7 8 7 8 8 7 5 4 3 1 1 1 1 2 4 9 9 3 7 11 15 17
10 11 13 16 20 23 24 26 29 30 30 30 29 30 31 32 32 31 30 30 29 27 27 27 26 23 21 21 23 26 26 25 24 24 21 19 18 18 19 20 20 19 18 16 14 12 11 10 10 10 8 7 8 7 6 5 4 2 1 0 1 2 3 5 7 8 8 8 8 7 7 7 8 6 3 3 2 1 6 8 7 5 3 7 11
10 11 13 16 22 26 29 30 30 30 31 31 31 31 31 32 32 31 30 30 30 29 28 28 27 24 21 21 22 24 25 24 24 24 23 21 20 19 19 19 19 18 18 18 16 14 12 11 11 10 9 8 8 7 6 6 4 4 3 1 1 0 2 3 5 7 8 9 9 9 8 8 9 10 9 6 4 3 2 4 6 7 6 6 5
10 11 14 20 25 29 31 31 30 30 32 33 32 31 31 31 32 32 31 30 30 30 29 29 27 24 22 23 23 22 23 23 24 25 24 23 21 20 20 19 18 17 17 19 18 15 13 12 11 11 10 9 9 9 7 7 6 5 4 3 2 1 1 1 3 4 5 7 8 9 10 9 8 8 9 8 5 4 2 2 5 6 5 7 5
9 10 13 20 26 29 29 29 30 30 31 31 30 30 31 31 32 32 32 31 30 30 30 29 27 24 23 24 24 23 22 23 24 25 25 24 22 21 20 19 18 17 17 19 18 16 14 13 12 12 11 10 10 9 8 7 7 6 5 5 3 2 1 1 1 1 2 4 6 7 9 9 7 5 7 7 5 4 3 2 4 4 3 5 6
10 9 10 14 18 21 25 26 28 28 28 28 29 30 31 31 32 32 31 30 29 30 31 29 27 25 25 25 25 25 24 23 23 25 26 25 24 21 21 20 19 18 19 19 19 17 15 15 14 13 12 11 10 9 8 7 7 6 6 5 4 3 3 2 2 1 1 1 5 6 6 6 4 4 5 6 6 4 3 1 2 3 2 3 6
10 9 10 10 12 16 21 23 25 27 28 29 29 29 30 31 31 31 31 29 29 30 31 29 26 26 26 27 26 26 26 24 24 24 25 26 24 22 21 21 20 20 21 21 19 18 17 16 14 14 14 13 11 10 9 7 7 6 6 6 5 4 4 3 3 2 1 1 3 4 4 4 3 3 3 5 5 4 3 3 2 2 1 2 5
9 10 11 11 12 18 22 24 25 27 29 30 30 30 30 30 31 31 31 30 29 31 31 29 27 27 28 27 26 27 27 26 25 25 25 25 24 22 22 21 21 22 23 21 19 18 18 16 14 13 14 14 12 11 10 8 7 7 7 7 6 6 6 5 4 3 2 2 2 2 3 3 2 2 3 4 5 4 3 2 1 2 2 2 4
7 10 12 12 16 22 23 25 26 28 29 30 30 30 30 30 31 32 31 30 30 31 31 29 28 28 28 26 25 26 27 26 26 26 25 25 24 23 22 21 21 22 22 20 18 18 18 16 14 13 13 13 13 12 11 9 9 9 8 8 7 7 7 6 6 5 3 3 3 2 3 3 3 3 3 4 4 4 3 2 1 2 2 3 4
6 9 12 14 19 24 25 26 27 28 30 30 30 31 31 31 32 33 32 32 32 31 31 30 29 29 28 26 25 25 27 27 26 26 26 25 24 23 22 22 21 22 22 20 18 18 19 17 15 14 13 13 13 12 11 10 10 10 9 8 8 8 7 7 7 6 6 5 4 4 4 3 3 3 4 3 3 4 4 3 3 2 1 2 4
6 7 10 13 18 23 26 27 28 29 30 31 32 33 33 33 33 33 33 32 33 33 32 31 30 30 28 27 26 26 27 27 27 26 26 26 25 23 22 23 22 22 22 21 19 19 19 17 16 15 14 13 13 12 12 11 11 11 10 9 9 9 9 8 8 7 7 6 6 5 4 3 2 3 3 3 2 2 3 4 5 4 0 0 1
7 6 8 12 16 21 25 28 30 32 32 33 34 35 35 35 35 34 33 32 33 33 33 32 32 31 30 28 28 27 27 27 27 25 25 25 26 25 23 24 24 22 22 22 20 20 20 18 17 16 16 15 15 14 13 12 12 12 11 11 10 10 10 9 9 8 7 7 7 6 5 4 3 2 3 3 3 2 3 4 4 4 3 3 2
7 6 5 8 14 20 24 27 30 32 33 34 35 35 34 34 35 36 35 35 35 34 33 33 32 31 30 29 29 29 28 27 26 25 24 25 26 26 25 25 24 23 22 22 21 21 21 20 18 17 17 17 16 15 14 13 13 13 12 12 10 10 10 9 8 8 7 7 7 7 6 4 4 4 4 4 5 4 4 4 4 4 5 6 6
8 7 5 6 12 20 24 27 30 32 33 34 34 34 35 34 34 34 34 35 34 33 33 32 32 31 29 29 30 30 28 27 26 26 25 26 26 26 26 26 25 23 22 22 22 21 21 21 20 19 18 17 17 16 15 13 13 13 13 12 11 10 10 10 9 8 7 7 7 7 6 5 4 4 5 6 7 7 7 7 7 7 6 7 8
10 8 6 5 9 17 22 24 29 32 32 32 33 34 34 34 34 34 34 34 33 33 33 32 31 30 29 29 30 30 29 27 26 26 26 26 26 25 25 25 24 23 22 21 22 21 21 21 20 20 19 18 17 17 15 14 14 13 12 12 11 11 11 11 10 9 8 8 8 8 8 7 5 6 6 7 8 8 8 8 7 7 7 7 8
10 10 7 5 8 14 19 21 23 26 29 32 34 34 34 34 34 34 34 33 33 33 33 32 31 30 29 29 29 30 30 27 26 26 25 25 25 25 25 24 24 23 21 21 21 21 20 20 20 20 19 18 18 17 16 15 15 14 13 12 12 12 12 11 11 10 9 8 9 9 9 8 7 7 7 7 8 7 7 7 6 5 6 5 7
3 5 4 4 6 12 18 21 22 24 27 29 31 31 33 34 34 34 34 34 35 34 34 32 31 30 30 29 28 30 29 27 26 26 25 25 25 25 24 24 24 23 22 21 21 21 20 20 20 20 20 19 18 17 16 16 16 15 15 14 13 12 12 11 11 11 10 9 10 10 10 9 8 9 9 9 8 8 8 7 6 5 5 5 6
5 4 2 4 6 6 3 7 12 19 25 29 32 32 33 34 34 33 34 34 33 33 33 32 32 31 30 28 28 29 29 27 27 26 25 25 25 24 23 23 24 23 23 22 22 22 22 21 21 21 20 20 19 18 18 17 17 16 16 15 13 12 12 12 12 12 11 9 9 9 9 9 9 10 11 11 10 10 9 7 6 6 7 8 8
8 7 5 6 8 9 10 12 11 6 2 9 17 24 28 31 32 33 36 37 35 33 32 31 31 30 29 29 28 28 28 28 28 27 26 25 25 24 24 24 24 24 24 23 22 23 23 23 22 22 21 21 20 20 19 19 18 17 16 16 15 14 13 13 12 12 11 10 9 9 8 8 9 11 11 11 11 10 9 7 8 8 9 10 10
8 8 7 5 5 6 8 8 7 10 10 9 5 5 11 14 14 13 17 23 28 30 32 32 31 29 28 28 29 28 29 28 28 28 28 27 26 25 25 25 25 25 25 24 23 23 23 23 23 23 22 22 21 21 20 20 19 18 18 18 17 16 14 14 13 13 12 12 11 10 9 8 10 11 11 11 11 10 10 10 10 10 9 9 10
5 5 5 4 4 3 5 10 11 7 7 6 4 5 8 9 12 10 6 8 12 18 23 25 28 29 29 28 29 29 29 29 29 28 28 28 28 27 26 26 26 26 26 26 24 23 23 23 23 23 23 22 22 21 21 21 20 19 19 19 19 18 16 15 14 14 13 13 12 12 11 10 11 11 11 11 11 11 12 12 12 11 11 11 11
3 3 3 4 4 1 1 6 12 14 15 16 15 15 14 13 20 25 23 21 20 19 19 19 20 24 27 28 29 29 29 29 29 29 29 28 28 28 27 26 27 28 27 27 26 25 24 24 23 23 23 23 22 21 21 21 21 20 19 19 19 18 17 17 16 15 14 13 13 13 12 12 12 13 13 12 11 12 13 13 13 13 13 13 13
2 2 2 1 3 5 6 8 11 14 15 16 18 20 18 16 20 25 27 30 31 28 26 25 23 23 24 26 27 27 28 29 29 29 30 30 30 29 27 26 27 29 28 27 27 27 26 25 25 24 23 23 22 22 21 21 21 21 20 19 19 19 18 18 17 16 15 14 14 14 14 14 14 14 14 13 13 12 12 12 12 12 13 14 14
3 2 3 3 4 2 3 7 9 11 13 15 16 18 20 21 22 23 22 24 29 30 29 28 27 25 25 25 24 25 26 28 29 30 30 31 32 30 28 27 27 28 29 28 28 28 28 27 26 25 24 24 24 23 22 22 21 21 21 21 20 20 19 19 19 17 17 16 16 16 15 14 14 14 13 13 12 12 12 12 13 13 13 14 14
4 3 3 4 4 5 5 4 1 5 9 11 12 15 18 18 20 22 21 21 26 30 29 28 27 27 27 26 24 23 22 22 26 29 29 28 29 29 29 30 30 29 29 28 29 29 29 29 27 27 26 25 25 24 23 22 22 22 23 22 22 21 20 20 20 19 19 18 17 17 16 15 15 14 13 12 12 12 12 13 13 13 13 13 13
5 4 4 4 5 5 6 8 6 1 8 11 13 15 16 18 19 21 22 21 23 26 28 29 29 28 27 26 23 21 20 17 17 21 25 26 24 22 20 22 26 29 29 29 30 30 30 30 29 29 28 26 26 24 23 22 22 22 23 23 22 21 21 21 21 20 21 20 19 18 17 17 15 14 13 12 11 10 9 9 10 11 11 11 11
6 5 5 5 5 6 8 10 9 4 6 13 18 19 19 20 23 24 24 22 19 18 19 21 23 23 23 22 21 19 19 17 12 11 16 22 23 21 15 11 15 20 23 25 28 29 29 30 29 29 29 28 27 25 23 22 22 22 22 23 23 22 22 23 23 22 22 21 20 20 19 17 14 14 13 12 11 11 10 10 11 10 10 9 9
7 6 6 6 7 9 11 11 11 9 6 3 11 19 20 19 21 23 24 23 20 16 13 12 13 16 19 20 21 20 19 20 16 9 10 15 19 20 15 8 8 11 13 14 17 20 24 26 27 27 27 27 27 26 23 23 23 22 22 22 23 23 23 23 24 24 23 22 21 21 19 17 14 13 12 12 12 12 11 11 9 8 8 7 8
7 7 7 9 12 13 14 15 14 12 10 10 9 13 17 15 15 16 17 17 18 17 15 12 11 11 14 16 17 17 16 17 16 12 10 13 13 12 13 11 9 9 9 10 10 10 12 16 19 22 23 24 25 25 24 24 24 24 23 23 24 23 23 23 23 23 23 22 22 21 20 18 14 12 10 10 10 10 10 10 9 7 7 7 8
7 8 9 12 15 16 16 17 18 15 13 13 12 13 15 14 13 12 11 11 12 12 12 12 12 10 11 12 13 14 14 13 13 11 10 12 11 9 12 15 13 11 12 13 14 13 12 11 13 16 19 21 22 22 23 24 24 24 24 24 25 25 24 24 23 22 21 22 22 21 19 17 15 13 12 11 11 11 10 10 9 7 7 6 6
9 10 12 14 16 17 17 18 18 17 16 14 13 14 15 16 15 14 13 12 11 10 9 9 10 9 8 7 6 8 8 8 8 8 9 11 9 8 10 14 15 16 17 17 17 19 18 16 15 16 18 19 19 19 20 22 23 24 24 25 25 26 26 26 26 24 21 20 21 21 19 18 17 15 14 13 12 12 11 10 9 8 7 7 6
11 12 14 15 16 17 17 18 19 18 17 16 16 16 18 18 17 16 16 15 14 12 10 8 7 7 5 3 3 4 5 6 6 6 7 10 9 8 9 11 14 17 18 18 18 20 20 20 19 19 19 20 19 17 17 18 20 21 22 23 25 25 26 27 27 25 22 20 19 20 20 20 18 16 14 13 12 12 11 11 11 10 9 9 8
11 12 13 13 14 16 17 18 18 16 15 17 18 19 20 20 18 19 19 18 16 14 11 9 6 5 5 5 4 4 4 4 4 7 8 8 8 9 9 10 12 14 15 17 18 19 21 23 24 24 22 19 17 16 15 16 17 18 19 20 21 22 23 24 24 22 20 18 19 19 20 19 17 16 14 13 12 11 10 10 10 11 11 10 10
10 11 11 12 13 15 16 17 16 14 14 15 18 20 21 19 18 19 19 17 16 15 14 12 10 8 6 5 4 3 2 3 4 5 6 7 7 8 8 9 10 12 13 15 16 18 20 22 23 25 24 21 20 19 19 19 19 18 18 19 20 20 21 22 20 18 17 18 20 20 19 18 17 16 14 11 10 9 9 9 9 9 10 10 9
9 9 11 13 14 14 15 15 14 13 13 14 17 20 20 19 19 19 16 13 13 13 14 14 15 13 11 8 5 4 3 2 2 3 4 6 6 7 8 9 10 11 13 14 15 15 16 17 18 21 22 22 21 22 22 22 22 22 22 21 22 23 22 20 19 19 20 21 23 23 21 19 17 15 13 11 10 9 9 10 10 8 8 8 7
9 9 11 13 14 14 15 15 14 14 14 14 17 19 19 18 19 17 13 11 12 13 13 14 14 15 15 13 11 9 8 6 4 2 2 3 3 4 6 7 8 9 10 12 13 14 13 12 11 11 13 13 13 14 17 18 20 22 22 22 21 22 22 22 21 20 22 26 27 25 22 20 17 14 12 10 9 9 10 10 10 9 8 8 6
10 10 10 12 14 15 15 15 15 15 15 15 17 19 19 20 20 17 12 10 11 13 13 13 14 14 14 14 13 12 11 11 9 7 4 4 3 1 2 4 6 7 7 8 9 9 9 6 5 5 5 5 4 6 8 10 12 15 17 18 19 20 22 23 24 23 25 29 29 25 20 17 15 13 11 10 9 10 11 11 11 9 8 7 6
11 10 10 12 14 15 15 15 15 15 15 16 17 18 19 20 20 17 12 10 9 10 11 12 13 14 14 14 14 14 14 14 13 12 11 10 9 6 3 1 3 5 7 8 8 8 8 8 8 7 5 4 2 0 3 4 6 8 11 12 14 17 19 21 25 30 29 26 23 21 18 16 15 13 11 10 9 10 11 11 11 9 8 8 10
12 11 10 11 12 13 13 13 13 14 14 14 14 15 17 18 18 16 13 11 9 9 10 11 11 13 13 13 13 14 14 14 14 14 14 15 14 12 8 4 3 4 7 8 10 11 12 12 12 11 10 8 5 3 2 2 3 4 6 7 7 8 9 9 16 25 28 23 20 20 18 15 13 11 9 9 9 9 9 9 9 10 10 12 15
10 10 9 8 9 10 11 11 11 11 12 12 11 12 14 15 14 14 13 12 11 11 10 10 9 10 10 10 10 11 11 12 13 13 14 15 16 16 14 9 7 7 8 8 9 10 12 13 13 13 13 11 9 8 7 6 5 5 4 6 7 7 5 2 4 12 19 20 18 17 15 12 10 9 9 9 9 9 9 9 9 11 14 17 19
7 7 6 5 6 8 8 8 8 8 9 9 9 9 10 11 11 11 12 10 10 11 11 11 9 8 8 8 9 9 8 9 10 11 12 12 12 14 15 14 12 12 12 11 10 10 12 12 12 12 13 13 12 11 10 9 8 7 8 8 9 9 8 5 2 3 7 9 9 9 10 11 10 11 11 11 10 10 10 11 13 16 19 20 19
5 4 4 3 4 4 5 5 5 6 7 8 9 9 8 9 9 10 10 9 10 10 10 10 10 9 8 9 9 10 11 11 10 11 13 14 12 12 15 17 16 14 13 12 12 13 12 11 11 12 11 11 11 10 9 8 8 9 9 10 9 9 8 5 3 3 4 4 5 8 11 13 14 14 13 13 13 14 15 18 20 21 21 21 20
5 3 3 3 3 2 2 3 4 5 6 7 8 9 8 8 9 9 9 8 8 8 8 9 9 9 10 10 11 12 13 13 12 13 14 14 14 13 15 17 17 16 14 12 12 13 12 10 10 11 11 9 8 7 7 7 8 9 9 10 10 9 8 7 4 2 4 5 7 10 13 15 16 16 18 19 20 21 22 23 23 23 22 21 19
5 3 2 1 2 4 4 5 5 5 6 6 7 8 8 8 8 8 8 7 5 5 7 8 8 8 8 8 9 11 12 12 13 13 13 13 13 13 14 16 17 16 14 13 12 12 10 6 5 5 6 7 7 6 6 6 6 6 7 8 8 8 7 6 5 2 3 5 8 10 13 16 18 20 22 23 24 25 25 24 23 22 21 20 18
5 5 5 4 2 2 3 5 6 6 6 7 7 7 7 7 7 7 7 6 3 2 3 4 6 7 7 7 7 8 8 9 9 11 12 13 13 13 13 14 15 15 14 13 12 11 9 7 5 4 4 4 4 5 5 4 4 5 6 7 7 6 5 4 3 3 6 7 8 10 13 16 20 22 23 24 24 25 25 24 22 21 20 18 18
Wind_Direction
190 177 174 178 182 183 181 179 176 174 176 179 179 181 184 185 185 185 185 184 184 184 185 186 189 191 194 198 197 194 191 191 191 191 191 188 189 198 198 192 193 199 210 216 218 217 206 199 202 216 229 230 234 238 237 244 272 327 354 355 347 354 8 10 5 354 219 224 231 228 244 256 246 245 256 266 270 271 270 267 265 262 260 261 261
183 172 172 175 177 180 179 176 175 175 177 180 180 181 184 186 185 185 185 185 187 186 187 189 192 193 194 197 196 194 194 194 195 196 198 196 196 203 203 202 203 201 205 209 207 202 199 201 211 226 225 219 225 224 221 218 216 7 21 13 3 8 13 17 17 25 136 201 197 243 266 264 256 255 259 261 264 269 271 271 269 269 271 271 268
179 169 172 173 172 175 177 176 178 180 180 181 182 182 183 185 185 185 185 186 187 187 189 191 196 198 199 199 197 196 197 197 198 198 203 205 203 205 208 209 206 200 197 194 195 198 203 212 220 224 216 209 215 216 212 205 151 43 41 32 17 18 22 29 28 30 50 158 155 350 298 294 280 267 258 255 257 262 264 268 271 272 275 275 271
178 170 173 172 170 173 176 178 180 181 180 181 183 183 183 184 185 185 185 186 186 188 191 195 198 201 204 206 202 201 201 200 200 199 201 206 206 207 208 209 206 202 195 189 194 205 213 223 223 216 207 203 214 219 214 203 153 75 59 48 23 17 22 36 46 48 54 128 157 334 35 44 321 288 288 273 265 264 262 263 267 268 269 270 269
178 170 174 174 171 173 176 178 180 180 180 182 184 185 184 184 184 184 185 186 188 190 193 198 199 197 200 203 200 201 202 200 202 202 203 206 206 204 204 206 207 204 202 198 203 212 220 227 222 213 207 208 217 215 210 203 167 125 72 52 27 17 19 37 65 67 63 75 112 143 33 27 247 284 326 312 304 294 276 264 255 255 260 264 268
180 170 172 175 174 174 175 177 179 181 183 184 187 187 187 186 184 184 185 187 190 192 194 197 198 196 196 195 192 193 195 198 204 205 204 206 205 201 201 205 207 207 208 206 208 216 225 230 223 216 212 212 214 206 204 202 175 154 88 57 34 23 23 39 63 72 70 68 74 98 61 293 251 286 355 321 343 8 355 303 254 246 251 258 264
184 172 170 175 175 173 174 178 180 183 185 186 187 187 188 188 186 186 187 188 191 193 195 196 197 197 197 197 196 195 194 200 207 208 206 205 205 203 203 206 208 209 211 211 212 215 223 229 224 221 218 211 208 204 204 198 180 172 129 69 39 24 24 37 44 52 64 62 63 75 72 71 36 348 166 292 331 357 19 24 337 264 257 259 263
186 175 172 174 176 175 176 180 184 185 185 186 187 188 190 190 190 190 189 190 191 193 195 197 198 198 195 195 198 199 201 204 207 209 207 207 208 208 206 207 209 211 213 214 214 213 219 227 226 225 225 216 211 206 202 202 201 198 184 41 7 6 14 31 35 37 44 42 49 64 66 71 67 61 80 87 112 327 1 23 33 12 313 286 280
188 179 176 178 178 178 179 181 185 185 184 186 188 189 191 192 192 192 192 193 193 195 197 198 200 201 198 194 193 197 204 207 207 208 208 208 210 211 208 207 208 211 215 217 217 216 222 229 229 229 227 222 219 215 211 216 225 222 216 244 284 348 14 24 29 33 38 36 38 47 55 66 66 63 68 68 83 91 355 343 12 31 41 27 348
194 184 181 182 181 181 181 181 183 184 185 187 188 189 190 190 190 191 194 195 196 197 199 199 200 204 205 201 195 194 200 205 206 206 207 208 211 211 210 208 207 210 214 216 216 217 224 230 233 232 227 222 221 221 222 226 229 225 226 238 231 182 32 7 15 25 32 34 34 37 44 51 50 49 53 51 54 73 71 343 354 19 32 30 32
193 189 186 186 184 182 179 179 181 183 185 185 186 188 188 189 190 192 195 197 198 199 200 200 202 207 211 207 203 199 197 199 202 204 205 207 210 212 212 211 210 211 211 210 212 217 225 230 233 234 227 223 223 222 224 231 233 229 237 243 235 224 229 274 324 2 19 34 38 37 43 50 51 46 45 46 45 51 58 5 354 11 5 11 25
186 184 186 185 183 180 178 180 181 181 182 184 185 187 188 190 191 192 195 198 200 200 200 203 207 211 212 210 210 208 203 201 202 203 205 206 209 213 215 214 215 214 210 208 211 217 225 227 232 232 225 223 225 222 223 233 236 235 246 249 245 255 257 259 270 262 254 42 45 42 44 49 53 49 43 39 37 43 49 19 358 10 343 355 15
181 179 180 180 180 180 179 180 180 180 182 184 185 187 188 190 192 193 196 198 201 200 202 207 212 214 213 211 212 211 209 208 207 208 208 208 211 213 215 216 217 215 211 211 214 219 222 224 230 229 223 223 224 222 225 234 238 240 248 250 250 263 265 266 274 272 274 10 38 40 37 45 57 48 31 21 21 28 34 32 21 1 314 339 6
180 178 179 180 181 182 181 181 181 182 184 185 186 187 188 191 193 195 197 199 201 201 204 210 215 216 214 213 214 213 212 213 214 214 212 212 214 217 219 219 217 214 211 213 218 221 221 222 229 229 223 224 224 222 227 234 240 244 248 251 254 261 263 265 277 279 286 325 353 5 10 21 31 15 355 355 3 5 12 32 25 351 316 328 358
178 181 180 182 183 183 183 183 183 185 185 185 187 188 189 191 194 196 197 199 202 203 206 211 214 213 213 214 216 215 214 216 217 218 216 215 217 220 223 222 219 214 212 217 223 222 221 221 228 230 225 224 224 224 229 234 239 242 245 250 249 252 257 260 268 279 287 294 298 307 338 355 353 351 343 333 334 328 328 348 29 27 359 331 344
171 184 184 184 183 184 184 185 186 187 186 186 188 189 190 192 195 197 199 200 202 205 208 211 211 211 212 215 216 216 216 216 216 216 216 216 218 220 222 220 218 217 216 221 226 223 221 224 228 229 226 227 227 228 233 236 239 240 242 245 242 241 251 258 265 276 286 289 289 291 306 331 352 1 350 335 318 308 317 332 344 21 67 340 340
167 186 190 186 185 186 187 187 187 187 188 188 189 190 192 194 195 197 200 201 202 205 208 210 210 211 213 216 216 215 215 215 215 215 217 218 219 221 220 218 217 218 220 224 227 224 223 228 230 227 228 233 233 234 238 238 239 241 243 243 241 242 249 258 266 272 280 288 289 282 284 305 334 354 345 324 299 301 319 330 331 333 324 194 329
170 186 196 190 187 189 189 189 189 188 189 191 191 192 194 195 196 197 198 200 202 205 208 209 210 212 215 217 217 216 215 216 217 218 220 220 221 221 221 219 219 220 222 224 226 225 226 229 231 228 230 236 238 238 241 241 242 244 246 244 243 248 254 258 265 270 279 290 291 280 271 277 287 306 318 299 276 282 303 315 326 317 291 260 230
178 183 197 197 192 192 192 192 192 191 190 192 192 193 195 196 198 198 199 202 204 205 206 209 211 213 216 218 219 218 218 220 222 223 224 223 222 222 222 222 222 223 224 226 227 228 229 231 231 232 235 238 239 240 242 243 245 248 247 245 245 252 261 262 264 272 281 290 291 279 265 264 272 281 292 290 283 284 292 304 320 316 297 280 267
189 190 193 199 198 197 195 193 193 192 192 193 192 192 194 197 198 199 200 202 203 204 205 208 210 213 217 219 220 220 221 223 226 227 227 226 224 223 224 224 225 226 229 230 231 231 232 232 234 236 238 239 239 240 242 242 245 250 248 245 248 257 266 268 268 272 278 287 291 279 262 257 268 274 278 288 288 286 285 290 302 311 303 287 274
190 196 198 200 201 200 200 199 196 193 192 192 192 193 195 196 197 199 200 201 202 203 205 207 210 212 215 217 219 220 221 224 227 229 229 228 226 224 225 226 227 229 231 233 234 233 233 234 235 237 238 240 239 240 240 238 240 245 245 246 249 255 261 265 267 271 277 282 283 276 262 255 266 271 271 285 291 287 285 284 287 300 301 288 274
197 200 196 190 194 197 199 201 199 195 192 192 193 193 194 195 197 198 199 201 202 203 204 206 208 210 212 215 217 219 221 225 228 229 229 228 226 226 226 227 227 229 231 234 234 233 233 235 236 237 239 239 239 238 236 236 238 240 241 244 248 251 254 257 258 264 274 280 277 273 265 257 264 268 267 281 290 288 294 289 279 288 298 291 276
220 215 205 196 203 202 197 195 196 194 192 193 193 193 194 196 197 197 199 201 202 203 204 205 206 208 210 212 215 217 219 223 225 227 228 229 229 229 229 229 230 232 235 237 236 235 235 236 236 236 238 238 236 235 234 236 238 239 241 244 246 249 250 251 252 255 265 276 276 276 272 263 263 266 267 276 283 289 299 294 272 272 285 284 277
39 35 38 30 7 340 264 203 198 196 194 194 193 194 196 196 196 197 199 201 202 203 203 204 205 207 208 210 213 215 217 220 222 224 227 229 230 232 233 234 235 237 238 239 239 238 238 239 237 236 237 237 235 235 234 236 238 241 244 245 246 247 247 249 252 252 256 266 272 275 275 270 269 272 274 277 281 288 295 288 271 274 283 283 281
37 33 36 48 42 28 21 15 8 356 248 207 199 197 198 198 197 198 200 201 201 201 201 203 204 206 207 208 210 213 215 217 220 222 225 227 230 234 236 236 237 238 240 240 238 237 238 239 239 239 239 239 238 238 237 237 240 242 245 248 248 247 248 250 253 253 253 259 265 268 269 269 274 280 282 282 285 288 288 284 281 286 290 288 283
32 28 22 26 51 76 82 73 30 357 351 348 333 227 207 201 194 196 202 201 200 200 200 201 203 204 206 209 210 212 215 217 219 221 224 226 230 234 237 237 237 238 239 240 237 236 236 238 241 242 242 242 242 242 241 241 241 243 246 248 247 247 249 252 254 255 256 259 262 265 266 264 265 273 279 280 283 287 287 284 283 286 290 288 280
38 53 57 38 24 33 97 136 158 187 211 217 223 223 220 205 189 190 204 203 199 201 200 200 202 204 205 209 211 213 215 218 220 222 224 227 229 233 237 239 239 239 238 238 237 237 237 238 240 241 241 243 243 243 242 240 241 244 247 248 246 245 248 251 254 256 257 258 260 262 263 258 254 260 268 273 279 284 284 282 280 282 287 288 284
35 53 76 94 109 136 176 160 167 172 183 191 195 204 214 208 198 199 201 198 198 201 199 199 204 207 207 210 212 215 217 220 224 226 227 228 230 232 237 241 241 239 238 237 236 237 239 239 240 240 240 240 240 240 240 240 242 244 245 245 245 245 247 251 255 255 252 253 256 257 257 255 255 258 262 266 271 275 277 277 275 277 281 284 287
48 30 357 42 107 145 180 188 181 172 174 180 184 192 197 195 199 203 200 196 196 199 199 199 204 208 210 211 214 217 220 224 227 229 229 229 230 233 236 239 239 237 237 239 240 240 241 241 240 240 240 239 239 239 239 240 242 242 242 244 245 246 248 252 254 253 249 249 252 254 254 258 261 263 264 265 266 268 272 275 275 276 279 281 284
41 5 340 356 32 65 191 197 186 171 166 169 173 181 186 188 193 196 196 196 195 195 197 197 198 202 208 211 213 215 220 225 227 229 230 230 230 232 235 237 239 239 238 240 241 241 241 243 242 241 241 240 240 242 242 242 243 244 245 245 246 247 248 251 254 252 250 252 255 255 257 261 264 264 264 263 263 265 269 272 277 280 282 283 283
49 37 17 12 25 23 0 342 253 182 164 155 158 166 174 180 183 183 190 199 197 193 195 197 196 199 204 208 209 209 214 223 229 230 230 231 231 231 234 236 238 241 243 243 242 240 240 241 242 243 243 243 243 244 245 246 248 248 248 247 247 248 248 250 253 252 253 256 256 256 256 257 258 259 260 262 264 266 267 268 271 274 278 282 280
44 42 38 30 33 32 21 17 14 166 169 159 152 150 155 161 164 170 182 195 198 193 194 197 198 198 199 201 204 205 207 219 237 236 227 226 227 229 236 244 242 241 244 244 242 241 240 239 239 241 243 244 245 247 248 250 250 249 248 247 247 248 248 249 250 252 255 258 258 257 255 255 257 259 262 263 262 261 263 266 267 268 275 282 280
33 28 34 39 40 42 40 32 28 47 165 171 161 151 152 157 159 162 169 179 188 189 187 191 195 195 195 197 199 201 201 205 227 248 233 221 217 218 230 259 257 243 240 240 237 236 236 236 236 238 241 243 244 246 248 250 250 249 248 247 247 249 250 248 248 250 253 256 258 258 257 258 261 259 255 251 247 249 258 268 269 269 275 281 280
20 20 23 30 38 47 48 40 30 30 37 99 144 148 152 156 154 152 155 162 170 174 173 176 181 186 193 196 196 197 199 199 206 233 250 232 214 203 202 220 245 234 227 228 231 233 233 233 234 236 240 243 244 246 248 249 249 249 248 246 246 250 250 249 249 250 251 254 257 257 259 262 260 251 243 239 241 247 257 262 261 262 269 274 277
16 15 19 30 39 44 43 38 32 36 47 52 83 126 139 142 143 145 148 156 164 171 175 178 174 179 189 191 191 196 202 205 208 219 246 251 231 197 187 200 220 226 219 211 215 225 231 233 233 234 237 241 243 246 248 248 249 249 247 245 245 247 249 250 252 252 252 254 255 257 260 259 249 239 237 237 239 244 248 248 250 258 270 274 275
23 23 27 37 45 48 48 47 45 47 55 60 71 99 113 114 119 128 132 143 158 168 175 181 183 187 195 194 194 200 205 211 218 222 236 251 245 214 208 217 223 233 235 224 215 217 220 224 229 232 234 237 240 243 245 245 245 245 244 244 244 244 246 248 251 252 252 254 254 255 256 248 236 234 238 236 236 240 243 247 251 257 264 265 263
36 40 45 50 56 60 61 63 64 61 60 64 75 93 102 101 103 107 107 110 118 121 128 149 163 169 176 182 191 203 204 203 205 203 210 226 226 213 218 222 218 225 234 232 226 225 225 224 227 229 231 233 236 239 241 242 242 241 242 242 243 243 245 247 249 251 255 257 253 248 243 236 230 232 233 233 236 241 246 251 255 253 247 244 240
47 51 53 56 62 69 71 73 74 72 72 76 81 87 90 91 95 100 103 100 95 94 106 122 130 142 163 180 193 208 209 201 204 213 218 222 219 210 212 215 215 222 231 236 237 237 236 236 238 239 238 239 241 243 244 245 245 244 244 244 245 247 248 249 250 252 255 253 243 236 232 229 229 229 229 231 237 242 247 252 254 249 235 224 222
58 61 61 61 67 75 77 77 74 72 76 84 88 86 82 78 81 89 93 95 92 93 107 119 119 140 178 183 164 171 179 175 200 231 238 235 231 227 226 226 226 231 236 240 243 244 244 244 246 246 244 244 248 253 256 254 250 248 248 248 249 250 251 251 252 251 248 237 225 223 223 222 224 225 225 230 235 240 248 250 249 245 233 221 221
60 67 75 79 78 74 69 64 62 63 70 78 83 82 76 71 74 78 80 86 94 101 108 115 118 124 138 141 121 102 101 129 159 196 220 229 233 235 238 238 238 239 241 243 244 246 248 249 249 248 246 246 248 251 255 255 253 253 254 254 254 254 254 252 247 241 236 226 218 219 221 218 219 223 224 227 232 236 240 239 238 239 234 225 221
61 67 77 79 75 68 61 55 53 57 62 69 76 74 68 65 66 65 64 72 88 98 103 107 109 108 105 103 98 85 83 118 156 182 215 228 230 231 232 235 238 239 240 243 244 245 248 251 250 248 245 245 245 244 247 251 253 257 259 259 258 257 257 256 248 237 231 226 220 218 218 217 217 221 223 225 228 228 227 226 227 228 230 227 223
69 69 72 75 72 66 61 55 52 57 60 67 72 68 62 59 55 48 51 66 78 86 92 98 103 105 101 99 97 90 83 82 86 113 194 211 219 228 226 226 232 239 241 242 243 246 247 246 244 237 231 229 230 235 242 250 256 261 263 262 259 255 250 251 250 239 226 223 221 217 213 213 214 218 222 224 225 224 220 221 223 223 223 222 216
71 69 72 78 75 67 61 56 54 57 61 65 67 61 54 50 42 38 51 74 78 79 83 88 94 98 98 98 98 95 88 83 80 81 81 68 53 23 243 225 227 233 234 230 231 234 229 211 191 190 190 182 189 222 243 256 265 269 270 267 262 254 243 239 239 230 215 212 214 211 206 205 207 210 215 217 218 219 216 217 222 222 219 212 194
76 76 80 83 78 69 63 59 55 54 56 59 60 57 51 45 38 39 54 72 76 75 76 77 80 84 87 91 93 92 89 84 79 75 69 62 58 56 57 133 194 194 190 184 182 181 166 139 128 131 126 111 99 283 277 285 291 293 289 283 275 265 254 243 235 230 221 210 201 196 194 195 196 197 200 202 208 214 214 215 217 213 201 185 168
80 80 80 79 76 72 65 60 54 50 50 50 52 54 49 41 37 43 52 60 65 67 68 70 73 76 80 83 83 82 81 77 74 71 65 60 57 57 61 72 98 134 152 151 145 146 139 124 115 111 102 97 94 84 60 8 344 326 313 316 314 296 278 250 224 218 215 208 197 190 186 185 186 187 187 190 196 198 196 196 197 190 177 167 159
87 84 83 79 75 71 67 62 54 47 44 41 41 47 45 38 38 44 48 51 56 58 60 66 71 73 72 70 68 67 66 65 66 64 63 61 56 53 57 68 80 93 112 123 120 119 115 109 107 106 101 99 99 91 79 63 45 28 10 3 8 10 5 2 181 187 190 191 190 183 174 171 176 177 174 174 173 170 170 173 175 171 165 160 155
83 80 85 83 71 63 61 59 53 44 36 31 30 35 35 31 33 40 42 46 52 57 61 65 68 68 65 61 59 58 56 57 59 59 64 70 65 57 57 66 81 93 101 106 101 93 89 90 93 96 98 97 92 85 77 69 55 39 31 25 22 25 27 25 50 144 167 177 177 170 165 167 170 168 164 163 161 162 164 163 160 159 157 153 151
83 67 61 59 61 60 53 45 40 31 20 16 17 20 17 14 18 25 30 39 49 56 62 66 67 67 67 67 69 69 66 67 67 66 70 76 80 77 71 70 81 93 98 98 97 92 87 86 85 85 88 87 79 70 62 53 42 30 25 23 25 28 30 36 72 121 149 159 165 171 171 169 166 161 156 154 152 153 153 151 149 148 147 144 141
120 89 52 32 20 4 355 356 358 359 360 0 5 9 7 4 6 7 10 25 43 53 59 65 69 73 74 73 73 72 70 71 73 74 74 73 77 84 86 84 86 93 96 97 100 99 95 92 87 81 77 71 64 54 40 27 18 12 7 5 10 19 23 28 45 107 154 161 166 168 164 159 155 150 146 143 143 142 141 140 141 141 139 137 135
156 156 161 95 1 333 321 325 329 334 341 345 349 354 357 359 3 5 4 7 22 42 56 66 71 74 75 73 71 71 71 72 74 77 79 78 75 78 87 90 91 93 96 100 104 102 96 89 81 72 64 56 45 31 19 10 359 355 352 350 358 8 15 19 26 62 127 146 158 162 159 157 153 147 142 139 139 138 137 135 135 135 135 133 130
190 195 194 192 213 283 304 323 330 328 325 325 326 329 333 343 355 5 10 8 2 14 49 67 72 74 77 77 76 75 73 72 78 83 85 87 87 82 81 84 87 89 90 92 94 93 88 77 57 39 25 17 6 357 354 344 331 329 334 341 348 354 6 18 35 88 105 110 123 132 141 148 149 144 140 138 137 137 135 132 131 130 130 129 126